QFA130 ZSPD-YSSY

Flight info

Callsign QFA130
Flight time N/A
Altitude 37000
Route LAM82D LAMEN A593 SADLI Y590 BEDAR Y591 ISPIT Z41 AGIKA G339 SABGU/N0483F360 A339 KEITH/N0479F370 R204 KEONE/N0474F390 R204 CS Y177 AKROM Y153 ROKUU H652 BOREE
Aircraft A332/H-SDE3GHIJ2J3J5M1RVWXY/LB2D1

Departure

Time N/A
Airport Shanghai Pudong International Airport (ZSPD)

Arrival

Time 2026-05-06 03:19
Airport Sydney Kingsford Smith International Airport (YSSY)
Time Latitude Longitude Altitude Speed Heading
2026-05-06 02:53 -33.18259 150.68251 37133 ft 381 kts 343°
2026-05-06 02:53 -33.13017 150.67284 37133 ft 381 kts 343°
2026-05-06 02:54 -33.07658 150.67008 37134 ft 396 kts 359°
2026-05-06 02:54 -33.04940 150.67750 37110 ft 407 kts 10°
2026-05-06 02:54 -33.02324 150.69175 37132 ft 421 kts 22°
2026-05-06 02:54 -32.99958 150.71234 37139 ft 434 kts 34°
2026-05-06 02:55 -32.97900 150.73924 37124 ft 447 kts 47°
2026-05-06 02:55 -32.96321 150.77168 37129 ft 458 kts 61°
2026-05-06 02:55 -32.95347 150.80804 37126 ft 467 kts 75°
2026-05-06 02:55 -32.95062 150.84678 37114 ft 474 kts 89°
2026-05-06 02:56 -32.95519 150.88571 36878 ft 477 kts 105°
2026-05-06 02:56 -32.96721 150.92238 36625 ft 474 kts 120°
2026-05-06 02:56 -32.98564 150.95455 36385 ft 468 kts 135°
2026-05-06 02:56 -33.00919 150.98063 36123 ft 458 kts 149°
2026-05-06 02:57 -33.03628 150.99954 35865 ft 446 kts 163°
2026-05-06 02:57 -33.06527 151.01082 35636 ft 433 kts 175°
2026-05-06 02:57 -33.09467 151.01729 35394 ft 428 kts 178°
2026-05-06 02:57 -33.12401 151.02275 35137 ft 426 kts 179°
2026-05-06 02:58 -33.15311 151.02813 34678 ft 420 kts 179°
2026-05-06 02:58 -33.18187 151.03353 34119 ft 415 kts 178°
2026-05-06 02:58 -33.21019 151.03891 33456 ft 410 kts 178°
2026-05-06 02:58 -33.23816 151.04393 32799 ft 402 kts 180°
2026-05-06 02:59 -33.26578 151.04506 31933 ft 395 kts 190°
2026-05-06 02:59 -33.29271 151.03944 31030 ft 389 kts 202°
2026-05-06 02:59 -33.31715 151.02760 30592 ft 370 kts 215°
2026-05-06 02:59 -33.33755 151.00998 29852 ft 358 kts 229°
2026-05-06 03:00 -33.35306 150.98749 28848 ft 355 kts 242°
2026-05-06 03:00 -33.36313 150.96092 27964 ft 349 kts 257°
2026-05-06 03:00 -33.36599 150.93247 27151 ft 344 kts 275°
2026-05-06 03:00 -33.36065 150.90476 26330 ft 343 kts 292°
2026-05-06 03:01 -33.34878 150.88026 25612 ft 341 kts 308°
2026-05-06 03:01 -33.33148 150.86107 24927 ft 341 kts 324°
2026-05-06 03:01 -33.31012 150.84874 24242 ft 343 kts 340°
2026-05-06 03:01 -33.28661 150.84350 23524 ft 346 kts 354°
2026-05-06 03:02 -33.26264 150.84534 22756 ft 347 kts
2026-05-06 03:02 -33.23907 150.85098 22034 ft 342 kts
2026-05-06 03:02 -33.21559 150.85473 21330 ft 339 kts
2026-05-06 03:02 -33.19236 150.85843 20649 ft 335 kts
2026-05-06 03:03 -33.16937 150.86195 19987 ft 331 kts
2026-05-06 03:03 -33.14692 150.86513 19345 ft 328 kts
2026-05-06 03:03 -33.13164 150.86709 18910 ft 325 kts
2026-05-06 03:03 -33.10200 150.86907 18021 ft 320 kts 359°
2026-05-06 03:04 -33.07989 150.87161 17300 ft 320 kts
2026-05-06 03:04 -33.05900 150.88054 16600 ft 321 kts 27°
2026-05-06 03:04 -33.04163 150.89705 15943 ft 321 kts 47°
2026-05-06 03:04 -33.03320 150.91153 15515 ft 321 kts 61°
2026-05-06 03:05 -33.02597 150.94564 14651 ft 320 kts 90°
2026-05-06 03:05 -33.02769 150.96299 14254 ft 318 kts 104°
2026-05-06 03:05 -33.04140 150.99351 13337 ft 313 kts 134°
2026-05-06 03:05 -33.05241 151.00437 12879 ft 310 kts 150°
2026-05-06 03:06 -33.07231 151.01353 12189 ft 305 kts 169°
2026-05-06 03:06 -33.09311 151.01781 11538 ft 302 kts 174°
2026-05-06 03:06 -33.11382 151.02133 10889 ft 299 kts 174°
2026-05-06 03:06 -33.13437 151.02488 10313 ft 297 kts 174°
2026-05-06 03:07 -33.15476 151.02854 10055 ft 297 kts 173°
2026-05-06 03:07 -33.17527 151.03231 9988 ft 299 kts 173°
2026-05-06 03:07 -33.19577 151.03614 9986 ft 297 kts 173°
2026-05-06 03:07 -33.21616 151.03998 9985 ft 296 kts 173°
2026-05-06 03:08 -33.23648 151.04405 9988 ft 296 kts 172°
2026-05-06 03:08 -33.25659 151.04811 9951 ft 288 kts 173°
2026-05-06 03:08 -33.27581 151.05177 9747 ft 280 kts 173°
2026-05-06 03:08 -33.29508 151.05538 9387 ft 279 kts 173°
2026-05-06 03:09 -33.31431 151.05896 9050 ft 278 kts 173°
2026-05-06 03:09 -33.33343 151.06254 8702 ft 277 kts 173°
2026-05-06 03:09 -33.35242 151.06610 8358 ft 276 kts 172°
2026-05-06 03:09 -33.37141 151.06863 8036 ft 273 kts 179°
2026-05-06 03:10 -33.39045 151.06922 7720 ft 272 kts 181°
2026-05-06 03:10 -33.40943 151.06937 7372 ft 271 kts 181°
2026-05-06 03:10 -33.42834 151.06947 7019 ft 271 kts 180°
2026-05-06 03:10 -33.44712 151.06958 6696 ft 271 kts 180°
2026-05-06 03:11 -33.46587 151.06970 6370 ft 269 kts 180°
2026-05-06 03:11 -33.48462 151.06984 6075 ft 267 kts 180°
2026-05-06 03:11 -33.50306 151.06999 5808 ft 264 kts 180°
2026-05-06 03:11 -33.52140 151.07014 5479 ft 263 kts 179°
2026-05-06 03:12 -33.53962 151.07137 5174 ft 261 kts 172°
2026-05-06 03:12 -33.55743 151.07524 4875 ft 260 kts 168°
2026-05-06 03:12 -33.57505 151.07964 4574 ft 258 kts 168°
2026-05-06 03:12 -33.59255 151.08409 4267 ft 256 kts 167°
2026-05-06 03:13 -33.60986 151.08856 3993 ft 253 kts 167°
2026-05-06 03:13 -33.62683 151.09307 3928 ft 249 kts 167°
2026-05-06 03:13 -33.64344 151.09751 3922 ft 239 kts 167°
2026-05-06 03:13 -33.65903 151.10156 3906 ft 226 kts 167°
2026-05-06 03:14 -33.67405 151.10540 3932 ft 217 kts 167°
2026-05-06 03:14 -33.68879 151.10918 3968 ft 218 kts 167°
2026-05-06 03:14 -33.70373 151.11304 3965 ft 220 kts 167°
2026-05-06 03:14 -33.71872 151.11693 3956 ft 220 kts 167°
2026-05-06 03:15 -33.73364 151.12079 3935 ft 220 kts 168°
2026-05-06 03:15 -33.74860 151.12467 3747 ft 220 kts 167°
2026-05-06 03:15 -33.76355 151.12854 3443 ft 220 kts 167°
2026-05-06 03:15 -33.77851 151.13242 3107 ft 220 kts 167°
2026-05-06 03:16 -33.79350 151.13630 2789 ft 221 kts 167°
2026-05-06 03:16 -33.80851 151.14019 2487 ft 219 kts 167°
2026-05-06 03:16 -33.82326 151.14401 2196 ft 213 kts 167°
2026-05-06 03:16 -33.83728 151.14765 1909 ft 198 kts 167°
2026-05-06 03:17 -33.85018 151.15100 1671 ft 182 kts 167°
2026-05-06 03:17 -33.86217 151.15411 1425 ft 171 kts 166°
2026-05-06 03:17 -33.87338 151.15702 1203 ft 157 kts 167°
2026-05-06 03:17 -33.88361 151.15968 1002 ft 144 kts 167°
2026-05-06 03:18 -33.89288 151.16206 788 ft 132 kts 168°
2026-05-06 03:18 -33.90157 151.16429 622 ft 124 kts 168°
2026-05-06 03:18 -33.90993 151.16644 450 ft 123 kts 169°
2026-05-06 03:18 -33.91829 151.16872 300 ft 124 kts 168°
2026-05-06 03:19 -33.92668 151.17086 136 ft 122 kts 168°
2026-05-06 03:19 -33.93487 151.17301 38 ft 115 kts 168°
2026-05-06 03:19 -33.94049 151.17447 30 ft 55 kts 168°
2026-05-06 03:19 -33.94384 151.17535 34 ft 45 kts 167°
2026-05-06 03:20 -33.94769 151.17634 33 ft 24 kts 170°
2026-05-06 03:20 -33.94940 151.17649 32 ft 25 kts 181°
2026-05-06 03:20 -33.95098 151.17624 32 ft 14 kts 191°
2026-05-06 03:21 -33.95146 151.17555 33 ft 10 kts 284°
2026-05-06 03:21 -33.95088 151.17515 33 ft 10 kts 348°
2026-05-06 03:21 -33.95011 151.17495 33 ft 13 kts 347°
2026-05-06 03:21 -33.94918 151.17469 33 ft 15 kts 348°
2026-05-06 03:22 -33.94812 151.17443 34 ft 16 kts 348°
2026-05-06 03:22 -33.94696 151.17413 34 ft 18 kts 348°
2026-05-06 03:22 -33.94566 151.17380 34 ft 20 kts 347°
2026-05-06 03:22 -33.94434 151.17345 34 ft 17 kts 347°
2026-05-06 03:23 -33.94346 151.17263 34 ft 17 kts 276°
2026-05-06 03:23 -33.94373 151.17117 34 ft 19 kts 254°
2026-05-06 03:23 -33.94403 151.16961 34 ft 19 kts 275°
2026-05-06 03:23 -33.94333 151.16894 33 ft 11 kts 347°
2026-05-06 03:24 -33.94248 151.16873 31 ft 14 kts 347°
2026-05-06 03:24 -33.94149 151.16843 33 ft 15 kts 346°
2026-05-06 03:24 -33.94044 151.16813 34 ft 16 kts 346°
2026-05-06 03:24 -33.93929 151.16775 34 ft 18 kts 344°
2026-05-06 03:25 -33.93875 151.16747 34 ft 4 kts 305°
2026-05-06 03:25 -33.93875 151.16710 34 ft 5 kts 261°
2026-05-06 03:25 -33.93883 151.16675 34 ft 4 kts 254°
2026-05-06 03:25 -33.93887 151.16656 34 ft 2 kts 254°
2026-05-06 03:26 -33.93888 151.16654 34 ft 0 kts 254°